owner,sensor,date,latitude,longitude,vertical_datum,direction_of_sea_water_velocity,sea_water_speed,upward_sea_water_velocity,qcFlag 
TABS,ioos:station:wmo:42049:1,2015-10-10T04:30:00Z,28.3507,-96.0058,2.0,225.7937352,16.83782943,-99999.0,'11111222,11111222,99999999' 
TABS,ioos:station:wmo:42049:1,2015-10-10T05:00:00Z,28.3507,-96.0058,2.0,221.8864809,14.84286361,-99999.0,'11111222,11111222,99999999' 
TABS,ioos:station:wmo:42049:1,2015-10-10T05:30:00Z,28.3507,-96.0058,2.0,194.0677664,13.12360469,-99999.0,'11111222,11111222,99999999' 
TABS,ioos:station:wmo:42049:1,2015-10-10T06:00:00Z,28.3507,-96.0058,2.0,189.0323943,16.87931871,-99999.0,'11111222,11111222,99999999' 
TABS,ioos:station:wmo:42049:1,2015-10-10T06:30:00Z,28.3507,-96.0058,2.0,182.2591862,20.54597284,-99999.0,'11111222,11111222,99999999' 
TABS,ioos:station:wmo:42049:1,2015-10-10T07:00:00Z,28.3507,-96.0058,2.0,173.3722988,21.14127716,-99999.0,'11111222,11111222,99999999' 
TABS,ioos:station:wmo:42049:1,2015-10-10T07:30:00Z,28.3507,-96.0058,2.0,172.6340188,25.97434311,-99999.0,'11111222,11111222,99999999' 
TABS,ioos:station:wmo:42049:1,2015-10-10T08:00:00Z,28.3507,-96.0058,2.0,167.923353,28.43938466,-99999.0,'11111222,11111222,99999999' 
TABS,ioos:station:wmo:42049:1,2015-10-10T08:30:00Z,28.3507,-96.0058,2.0,165.774405,28.64846418,-99999.0,'11111222,11111222,99999999' 
TABS,ioos:station:wmo:42049:1,2015-10-10T09:00:00Z,28.3507,-96.0058,2.0,157.2425871,35.28702453,-99999.0,'11111222,11111222,99999999' 
TABS,ioos:station:wmo:42049:1,2015-10-10T09:30:00Z,28.3507,-96.0058,2.0,156.4838688,36.74141668,-99999.0,'11111222,11111222,99999999' 
TABS,ioos:station:wmo:42049:1,2015-10-10T10:00:00Z,28.3507,-96.0058,2.0,158.4362066,37.13938745,-99999.0,'11111222,11111222,99999999' 
TABS,ioos:station:wmo:42049:1,2015-10-10T10:30:00Z,28.3507,-96.0058,2.0,157.0024971,40.74857666,-99999.0,'11111222,11111222,99999999' 
TABS,ioos:station:wmo:42049:1,2015-10-10T11:00:00Z,28.3507,-96.0058,2.0,157.3697306,43.01153915,-99999.0,'11111222,11111222,99999999' 
TABS,ioos:station:wmo:42049:1,2015-10-10T11:30:00Z,28.3507,-96.0058,2.0,161.2805089,42.68811193,-99999.0,'11111222,11111222,99999999' 
TABS,ioos:station:wmo:42049:1,2015-10-10T12:00:00Z,28.3507,-96.0058,2.0,163.562369,43.18500666,-99999.0,'11111222,11111222,99999999' 
TABS,ioos:station:wmo:42049:1,2015-10-10T12:30:00Z,28.3507,-96.0058,2.0,167.7990035,43.76860633,-99999.0,'11111222,11111222,99999999' 
TABS,ioos:station:wmo:42049:1,2015-10-10T13:00:00Z,28.3507,-96.0058,2.0,170.2571294,41.66084613,-99999.0,'11111222,11111222,99999999' 
TABS,ioos:station:wmo:42049:1,2015-10-10T13:30:00Z,28.3507,-96.0058,2.0,176.7263263,38.35257749,-99999.0,'11111222,11111222,99999999' 
TABS,ioos:station:wmo:42049:1,2015-10-10T14:00:00Z,28.3507,-96.0058,2.0,182.8608214,41.87219244,-99999.0,'11111222,11111222,99999999' 
TABS,ioos:station:wmo:42049:1,2015-10-10T14:30:00Z,28.3507,-96.0058,2.0,193.106585,41.71676521,-99999.0,'11111222,11111222,99999999' 
TABS,ioos:station:wmo:42049:1,2015-10-10T15:00:00Z,28.3507,-96.0058,2.0,201.9271127,40.54296116,-99999.0,'11111222,11111222,99999999' 
TABS,ioos:station:wmo:42049:1,2015-10-10T15:30:00Z,28.3507,-96.0058,2.0,207.9622988,36.49006714,-99999.0,'11111222,11111222,99999999' 
TABS,ioos:station:wmo:42049:1,2015-10-10T16:00:00Z,28.3507,-96.0058,2.0,210.9279084,38.67979834,-99999.0,'11111222,11111222,99999999' 
TABS,ioos:station:wmo:42049:1,2015-10-10T16:30:00Z,28.3507,-96.0058,2.0,234.9893142,46.10227869,-99999.0,'11111222,11111222,99999999' 
TABS,ioos:station:wmo:42049:1,2015-10-10T17:00:00Z,28.3507,-96.0058,2.0,245.1191064,45.94421944,-99999.0,'11111222,11111222,99999999' 
TABS,ioos:station:wmo:42049:1,2015-10-10T17:30:00Z,28.3507,-96.0058,2.0,249.7665747,37.99450092,-99999.0,'11111222,11111222,99999999' 
TABS,ioos:station:wmo:42049:1,2015-10-10T18:00:00Z,28.3507,-96.0058,2.0,260.7850008,34.22161305,-99999.0,'11111222,11111222,99999999' 
TABS,ioos:station:wmo:42049:1,2015-10-10T18:30:00Z,28.3507,-96.0058,2.0,264.209169,27.85211303,-99999.0,'11111222,11111222,99999999' 
TABS,ioos:station:wmo:42049:1,2015-10-10T19:00:00Z,28.3507,-96.0058,2.0,270.6149777,20.51117988,-99999.0,'11111222,11111222,99999999' 
TABS,ioos:station:wmo:42049:1,2015-10-10T19:30:00Z,28.3507,-96.0058,2.0,278.4526246,19.11764107,-99999.0,'11111222,11111222,99999999' 
TABS,ioos:station:wmo:42049:1,2015-10-10T20:00:00Z,28.3507,-96.0058,2.0,282.160734,20.74548867,-99999.0,'11111222,11111222,99999999' 
TABS,ioos:station:wmo:42049:1,2015-10-10T20:30:00Z,28.3507,-96.0058,2.0,281.3103269,20.03914669,-99999.0,'11111222,11111222,99999999' 
TABS,ioos:station:wmo:42049:1,2015-10-10T21:00:00Z,28.3507,-96.0058,2.0,289.3779839,18.83707514,-99999.0,'11111222,11111222,99999999' 
TABS,ioos:station:wmo:42049:1,2015-10-10T21:30:00Z,28.3507,-96.0058,2.0,311.2988963,9.091144042,-99999.0,'11133222,11111222,99999999' 
TABS,ioos:station:wmo:42049:1,2015-10-10T22:00:00Z,28.3507,-96.0058,2.0,296.7312435,6.180517778,-99999.0,'11133222,11111222,99999999' 
TABS,ioos:station:wmo:42049:1,2015-10-10T22:30:00Z,28.3507,-96.0058,2.0,335.4407363,7.795235724,-99999.0,'11133222,11111222,99999999' 
TABS,ioos:station:wmo:42049:1,2015-10-10T23:00:00Z,28.3507,-96.0058,2.0,327.9687134,11.59531802,-99999.0,'11111222,11111222,99999999' 
TABS,ioos:station:wmo:42049:1,2015-10-10T23:30:00Z,28.3507,-96.0058,2.0,335.8742199,18.4956211,-99999.0,'11111222,11111222,99999999' 
TABS,ioos:station:wmo:42049:1,2015-10-11T00:00:00Z,28.3507,-96.0058,2.0,338.7179806,16.80611793,-99999.0,'11111222,11111222,99999999' 
TABS,ioos:station:wmo:42049:1,2015-10-11T00:30:00Z,28.3507,-96.0058,2.0,335.0251318,17.40778274,-99999.0,'11111222,11111222,99999999' 
TABS,ioos:station:wmo:42049:1,2015-10-11T01:00:00Z,28.3507,-96.0058,2.0,332.785086,15.76529416,-99999.0,'11111222,11111222,99999999' 
TABS,ioos:station:wmo:42049:1,2015-10-11T01:30:00Z,28.3507,-96.0058,2.0,336.2736727,19.23589613,-99999.0,'11111222,11111222,99999999' 
TABS,ioos:station:wmo:42049:1,2015-10-11T02:00:00Z,28.3507,-96.0058,2.0,343.8078894,16.89001184,-99999.0,'11111222,11111222,99999999' 
TABS,ioos:station:wmo:42049:1,2015-10-11T02:30:00Z,28.3507,-96.0058,2.0,345.5077982,18.58124323,-99999.0,'11111222,11111222,99999999' 
TABS,ioos:station:wmo:42049:1,2015-10-11T03:00:00Z,28.3507,-96.0058,2.0,337.9867254,15.04699638,-99999.0,'11111222,11111222,99999999' 
TABS,ioos:station:wmo:42049:1,2015-10-11T03:30:00Z,28.3507,-96.0058,2.0,345.6906883,15.253239,-99999.0,'11111222,11111222,99999999' 
TABS,ioos:station:wmo:42049:1,2015-10-11T04:00:00Z,28.3507,-96.0058,2.0,0.942045577,21.29287674,-99999.0,'11111222,11111222,99999999' 
TABS,ioos:station:wmo:42049:1,2015-10-11T04:30:00Z,28.3507,-96.0058,2.0,20.28272212,18.63550375,-99999.0,'11111222,11111222,99999999' 
TABS,ioos:station:wmo:42049:1,2015-10-11T05:00:00Z,28.3507,-96.0058,2.0,54.09873902,13.36991025,-99999.0,'11111222,11111222,99999999' 
TABS,ioos:station:wmo:42049:1,2015-10-11T05:30:00Z,28.3507,-96.0058,2.0,67.85415819,8.647988205,-99999.0,'11133222,11111222,99999999' 
TABS,ioos:station:wmo:42049:1,2015-10-11T06:00:00Z,28.3507,-96.0058,2.0,71.85918974,6.776850301,-99999.0,'11133222,11111222,99999999' 
TABS,ioos:station:wmo:42049:1,2015-10-11T06:30:00Z,28.3507,-96.0058,2.0,87.82427832,7.375316942,-99999.0,'11133222,11111222,99999999' 
TABS,ioos:station:wmo:42049:1,2015-10-11T07:00:00Z,28.3507,-96.0058,2.0,99.07794329,7.352088139,-99999.0,'11133222,11111222,99999999' 
TABS,ioos:station:wmo:42049:1,2015-10-11T07:30:00Z,28.3507,-96.0058,2.0,123.6899887,4.57905012,-99999.0,'11133222,11111222,99999999' 
TABS,ioos:station:wmo:42049:1,2015-10-11T08:00:00Z,28.3507,-96.0058,2.0,158.1795091,5.622855147,-99999.0,'11133222,11111222,99999999' 
TABS,ioos:station:wmo:42049:1,2015-10-11T08:30:00Z,28.3507,-96.0058,2.0,155.4244198,5.410073937,-99999.0,'11133222,11111222,99999999' 
TABS,ioos:station:wmo:42049:1,2015-10-11T09:00:00Z,28.3507,-96.0058,2.0,187.0010407,6.317103767,-99999.0,'11133222,11111222,99999999' 
TABS,ioos:station:wmo:42049:1,2015-10-11T09:30:00Z,28.3507,-96.0058,2.0,190.3832202,5.215409859,-99999.0,'11133222,11111222,99999999' 
TABS,ioos:station:wmo:42049:1,2015-10-11T10:00:00Z,28.3507,-96.0058,2.0,206.0532239,5.008991915,-99999.0,'11133222,11111222,99999999' 
TABS,ioos:station:wmo:42049:1,2015-10-11T10:30:00Z,28.3507,-96.0058,2.0,220.2028966,6.088300255,-99999.0,'11133222,11111222,99999999' 
TABS,ioos:station:wmo:42049:1,2015-10-11T11:00:00Z,28.3507,-96.0058,2.0,210.6553635,7.335100545,-99999.0,'11133222,11111222,99999999' 
TABS,ioos:station:wmo:42049:1,2015-10-11T11:30:00Z,28.3507,-96.0058,2.0,221.192367,7.986720228,-99999.0,'11133222,11111222,99999999' 
TABS,ioos:station:wmo:42049:1,2015-10-11T12:00:00Z,28.3507,-96.0058,2.0,244.8342052,5.126597312,-99999.0,'11133222,11111222,99999999' 
TABS,ioos:station:wmo:42049:1,2015-10-11T12:30:00Z,28.3507,-96.0058,2.0,252.1312373,5.116815416,-99999.0,'11133222,11111222,99999999' 
TABS,ioos:station:wmo:42049:1,2015-10-11T13:00:00Z,28.3507,-96.0058,2.0,243.798472,7.745895687,-99999.0,'11133222,11111222,99999999' 
TABS,ioos:station:wmo:42049:1,2015-10-11T13:30:00Z,28.3507,-96.0058,2.0,255.9466642,8.318972292,-99999.0,'11133222,11111222,99999999' 
TABS,ioos:station:wmo:42049:1,2015-10-11T14:00:00Z,28.3507,-96.0058,2.0,252.0363811,9.986811303,-99999.0,'11133222,11111222,99999999' 
TABS,ioos:station:wmo:42049:1,2015-10-11T14:30:00Z,28.3507,-96.0058,2.0,239.5980229,11.36232811,-99999.0,'11111222,11111222,99999999' 
TABS,ioos:station:wmo:42049:1,2015-10-11T15:00:00Z,28.3507,-96.0058,2.0,242.0486754,9.984728339,-99999.0,'11133222,11111222,99999999' 
TABS,ioos:station:wmo:42049:1,2015-10-11T15:30:00Z,28.3507,-96.0058,2.0,258.6711248,12.11605546,-99999.0,'11111222,11111222,99999999' 
TABS,ioos:station:wmo:42049:1,2015-10-11T16:00:00Z,28.3507,-96.0058,2.0,258.3622729,8.923429834,-99999.0,'11133222,11111222,99999999' 
TABS,ioos:station:wmo:42049:1,2015-10-11T16:30:00Z,28.3507,-96.0058,2.0,260.1232182,11.60193949,-99999.0,'11111222,11111222,99999999' 
TABS,ioos:station:wmo:42049:1,2015-10-11T17:00:00Z,28.3507,-96.0058,2.0,256.3397138,9.231105026,-99999.0,'11133222,11111222,99999999' 
TABS,ioos:station:wmo:42049:1,2015-10-11T17:30:00Z,28.3507,-96.0058,2.0,266.9962653,9.54310746,-99999.0,'11133222,11111222,99999999' 
TABS,ioos:station:wmo:42049:1,2015-10-11T18:00:00Z,28.3507,-96.0058,2.0,268.3467305,10.05418321,-99999.0,'11111222,11111222,99999999' 
TABS,ioos:station:wmo:42049:1,2015-10-11T18:30:00Z,28.3507,-96.0058,2.0,265.2475421,8.208215397,-99999.0,'11133222,11111222,99999999' 
TABS,ioos:station:wmo:42049:1,2015-10-11T19:00:00Z,28.3507,-96.0058,2.0,266.0420352,6.375201958,-99999.0,'11133222,11111222,99999999' 
TABS,ioos:station:wmo:42049:1,2015-10-11T19:30:00Z,28.3507,-96.0058,2.0,258.4491148,7.940812301,-99999.0,'11133222,11111222,99999999' 
TABS,ioos:station:wmo:42049:1,2015-10-11T20:00:00Z,28.3507,-96.0058,2.0,263.9044227,8.005254524,-99999.0,'11133222,11111222,99999999' 
TABS,ioos:station:wmo:42049:1,2015-10-11T20:30:00Z,28.3507,-96.0058,2.0,263.4073919,8.536439539,-99999.0,'11133222,11111222,99999999' 
TABS,ioos:station:wmo:42049:1,2015-10-11T21:00:00Z,28.3507,-96.0058,2.0,271.0650258,8.611486515,-99999.0,'11133222,11111222,99999999' 
TABS,ioos:station:wmo:42049:1,2015-10-11T21:30:00Z,28.3507,-96.0058,2.0,296.1079157,9.521480977,-99999.0,'11133222,11111222,99999999' 
TABS,ioos:station:wmo:42049:1,2015-10-11T22:00:00Z,28.3507,-96.0058,2.0,296.9479217,9.378278094,-99999.0,'11133222,11111222,99999999' 
TABS,ioos:station:wmo:42049:1,2015-10-11T22:30:00Z,28.3507,-96.0058,2.0,292.6018218,9.57538511,-99999.0,'11133222,11111222,99999999' 
TABS,ioos:station:wmo:42049:1,2015-10-11T23:00:00Z,28.3507,-96.0058,2.0,301.7070002,10.97854726,-99999.0,'11111222,11111222,99999999' 
TABS,ioos:station:wmo:42049:1,2015-10-11T23:30:00Z,28.3507,-96.0058,2.0,297.5649931,13.07404299,-99999.0,'11111222,11111222,99999999' 
TABS,ioos:station:wmo:42049:1,2015-10-12T00:00:00Z,28.3507,-96.0058,2.0,303.4833179,9.208083405,-99999.0,'11133222,11111222,99999999' 
TABS,ioos:station:wmo:42049:1,2015-10-12T00:30:00Z,28.3507,-96.0058,2.0,330.3135742,9.772701776,-99999.0,'11133222,11111222,99999999' 
TABS,ioos:station:wmo:42049:1,2015-10-12T01:00:00Z,28.3507,-96.0058,2.0,330.7761924,10.50741643,-99999.0,'11111222,11111222,99999999' 
TABS,ioos:station:wmo:42049:1,2015-10-12T01:30:00Z,28.3507,-96.0058,2.0,333.8654368,10.12520123,-99999.0,'11111222,11111222,99999999' 
TABS,ioos:station:wmo:42049:1,2015-10-12T02:00:00Z,28.3507,-96.0058,2.0,331.5603595,6.971319818,-99999.0,'11133222,11111222,99999999' 
TABS,ioos:station:wmo:42049:1,2015-10-12T02:30:00Z,28.3507,-96.0058,2.0,353.1070751,8.582033559,-99999.0,'11133222,11111222,99999999' 
TABS,ioos:station:wmo:42049:1,2015-10-12T03:00:00Z,28.3507,-96.0058,2.0,356.9263286,6.899927536,-99999.0,'11133222,11111222,99999999' 
TABS,ioos:station:wmo:42049:1,2015-10-12T03:30:00Z,28.3507,-96.0058,2.0,358.4576126,5.572019383,-99999.0,'11133222,11111222,99999999' 
TABS,ioos:station:wmo:42049:1,2015-10-12T04:00:00Z,28.3507,-96.0058,2.0,33.19998104,2.593318338,-99999.0,'11133222,11111222,99999999' 
TABS,ioos:station:wmo:42049:1,2015-10-12T04:30:00Z,28.3507,-96.0058,2.0,46.37364455,5.014828013,-99999.0,'11133222,11111222,99999999' 
TABS,ioos:station:wmo:42049:1,2015-10-12T05:00:00Z,28.3507,-96.0058,2.0,351.0398136,2.43977458,-99999.0,'11133222,11111222,99999999' 
TABS,ioos:station:wmo:42049:1,2015-10-12T05:30:00Z,28.3507,-96.0058,2.0,3.788228954,4.389589958,-99999.0,'11133222,11111222,99999999' 
TABS,ioos:station:wmo:42049:1,2015-10-12T06:00:00Z,28.3507,-96.0058,2.0,348.4925067,1.70425937,-99999.0,'11133222,11111222,99999999' 
TABS,ioos:station:wmo:42049:1,2015-10-12T06:30:00Z,28.3507,-96.0058,2.0,9.534520111,3.924206926,-99999.0,'11133222,11111222,99999999' 
TABS,ioos:station:wmo:42049:1,2015-10-12T07:00:00Z,28.3507,-96.0058,2.0,27.50529465,4.633756575,-99999.0,'11133222,11111222,99999999' 
TABS,ioos:station:wmo:42049:1,2015-10-12T07:30:00Z,28.3507,-96.0058,2.0,352.4272795,5.235666147,-99999.0,'11133222,11111222,99999999' 
TABS,ioos:station:wmo:42049:1,2015-10-12T08:00:00Z,28.3507,-96.0058,2.0,358.7715378,3.73085781,-99999.0,'11133222,11111222,99999999' 
TABS,ioos:station:wmo:42049:1,2015-10-12T08:30:00Z,28.3507,-96.0058,2.0,5.19462722,4.859958848,-99999.0,'11133222,11111222,99999999' 
TABS,ioos:station:wmo:42049:1,2015-10-12T09:00:00Z,28.3507,-96.0058,2.0,29.45033742,1.688135066,-99999.0,'11133222,11111222,99999999' 
TABS,ioos:station:wmo:42049:1,2015-10-12T09:30:00Z,28.3507,-96.0058,2.0,51.99506102,11.20619918,-99999.0,'11111222,11111222,99999999' 
TABS,ioos:station:wmo:42049:1,2015-10-12T10:00:00Z,28.3507,-96.0058,2.0,50.17180516,19.37582256,-99999.0,'11111222,11111222,99999999' 
TABS,ioos:station:wmo:42049:1,2015-10-12T10:30:00Z,28.3507,-96.0058,2.0,37.79647479,23.00700763,-99999.0,'11111222,11111222,99999999' 
TABS,ioos:station:wmo:42049:1,2015-10-12T11:00:00Z,28.3507,-96.0058,2.0,46.35440153,23.036903,-99999.0,'11111222,11111222,99999999' 
TABS,ioos:station:wmo:42049:1,2015-10-12T11:30:00Z,28.3507,-96.0058,2.0,42.18088472,25.30262042,-99999.0,'11111222,11111222,99999999' 
TABS,ioos:station:wmo:42049:1,2015-10-12T12:00:00Z,28.3507,-96.0058,2.0,41.77488556,24.2568279,-99999.0,'11111222,11111222,99999999' 
TABS,ioos:station:wmo:42049:1,2015-10-12T12:30:00Z,28.3507,-96.0058,2.0,48.52571218,23.91719047,-99999.0,'11111222,11111222,99999999' 
TABS,ioos:station:wmo:42049:1,2015-10-12T13:00:00Z,28.3507,-96.0058,2.0,55.14625978,26.49239891,-99999.0,'11111222,11111222,99999999' 
TABS,ioos:station:wmo:42049:1,2015-10-12T13:30:00Z,28.3507,-96.0058,2.0,51.24394077,26.00609159,-99999.0,'11111222,11111222,99999999' 
TABS,ioos:station:wmo:42049:1,2015-10-12T14:00:00Z,28.3507,-96.0058,2.0,54.89029802,26.30641177,-99999.0,'11111222,11111222,99999999' 
TABS,ioos:station:wmo:42049:1,2015-10-12T14:30:00Z,28.3507,-96.0058,2.0,52.46204807,24.0116326,-99999.0,'11111222,11111222,99999999' 
TABS,ioos:station:wmo:42049:1,2015-10-12T15:00:00Z,28.3507,-96.0058,2.0,47.7401235,25.29384312,-99999.0,'11111222,11111222,99999999' 
TABS,ioos:station:wmo:42049:1,2015-10-12T15:30:00Z,28.3507,-96.0058,2.0,54.73417846,24.5076029,-99999.0,'11111222,11111222,99999999' 
TABS,ioos:station:wmo:42049:1,2015-10-12T16:00:00Z,28.3507,-96.0058,2.0,55.1548957,32.60635674,-99999.0,'11111222,11111222,99999999' 
TABS,ioos:station:wmo:42049:1,2015-10-12T16:30:00Z,28.3507,-96.0058,2.0,55.4779536,30.36749084,-99999.0,'11111222,11111222,99999999' 
TABS,ioos:station:wmo:42049:1,2015-10-12T17:00:00Z,28.3507,-96.0058,2.0,50.56623884,27.62965979,-99999.0,'11111222,11111222,99999999' 
TABS,ioos:station:wmo:42049:1,2015-10-12T17:30:00Z,28.3507,-96.0058,2.0,51.54003552,29.11721312,-99999.0,'11111222,11111222,99999999' 
TABS,ioos:station:wmo:42049:1,2015-10-12T18:00:00Z,28.3507,-96.0058,2.0,53.16690478,31.21000641,-99999.0,'11111222,11111222,99999999' 
TABS,ioos:station:wmo:42049:1,2015-10-12T18:30:00Z,28.3507,-96.0058,2.0,57.13257345,31.49080183,-99999.0,'11111222,11111222,99999999' 
TABS,ioos:station:wmo:42049:1,2015-10-12T19:00:00Z,28.3507,-96.0058,2.0,55.93818077,33.76253841,-99999.0,'11111222,11111222,99999999' 
TABS,ioos:station:wmo:42049:1,2015-10-12T19:30:00Z,28.3507,-96.0058,2.0,91.09748349,28.71526772,-99999.0,'11111222,11111222,99999999' 
TABS,ioos:station:wmo:42049:1,2015-10-12T20:00:00Z,28.3507,-96.0058,2.0,82.11313504,39.64500599,-99999.0,'11111222,11111222,99999999' 
TABS,ioos:station:wmo:42049:1,2015-10-12T20:30:00Z,28.3507,-96.0058,2.0,77.77925058,36.51751634,-99999.0,'11111222,11111222,99999999' 
TABS,ioos:station:wmo:42049:1,2015-10-12T21:00:00Z,28.3507,-96.0058,2.0,76.72285617,32.22126006,-99999.0,'11111222,11111222,99999999' 
TABS,ioos:station:wmo:42049:1,2015-10-12T21:30:00Z,28.3507,-96.0058,2.0,73.10120106,36.56907163,-99999.0,'11111222,11111222,99999999' 
TABS,ioos:station:wmo:42049:1,2015-10-12T22:00:00Z,28.3507,-96.0058,2.0,75.04864134,33.25587617,-99999.0,'11111222,11111222,99999999' 
TABS,ioos:station:wmo:42049:1,2015-10-12T22:30:00Z,28.3507,-96.0058,2.0,70.28930221,29.11598358,-99999.0,'11111222,11111222,99999999' 
TABS,ioos:station:wmo:42049:1,2015-10-12T23:00:00Z,28.3507,-96.0058,2.0,69.68021708,30.0927051,-99999.0,'11111222,11111222,99999999' 
TABS,ioos:station:wmo:42049:1,2015-10-12T23:30:00Z,28.3507,-96.0058,2.0,73.79920419,33.58361803,-99999.0,'11111222,11111222,99999999' 
TABS,ioos:station:wmo:42049:1,2015-10-13T00:00:00Z,28.3507,-96.0058,2.0,80.79183923,32.24553457,-99999.0,'11111222,11111222,99999999' 
TABS,ioos:station:wmo:42049:1,2015-10-13T00:30:00Z,28.3507,-96.0058,2.0,77.33785429,26.09463546,-99999.0,'11111222,11111222,99999999' 
TABS,ioos:station:wmo:42049:1,2015-10-13T01:00:00Z,28.3507,-96.0058,2.0,78.28538077,28.31987641,-99999.0,'11111222,11111222,99999999' 
TABS,ioos:station:wmo:42049:1,2015-10-13T01:30:00Z,28.3507,-96.0058,2.0,82.80538835,28.58506603,-99999.0,'11111222,11111222,99999999' 
TABS,ioos:station:wmo:42049:1,2015-10-13T02:00:00Z,28.3507,-96.0058,2.0,74.39765097,25.46847856,-99999.0,'11111222,11111222,99999999' 
TABS,ioos:station:wmo:42049:1,2015-10-13T02:30:00Z,28.3507,-96.0058,2.0,66.63094148,20.29481214,-99999.0,'11111222,11111222,99999999' 
TABS,ioos:station:wmo:42049:1,2015-10-13T03:00:00Z,28.3507,-96.0058,2.0,65.47634269,20.21346581,-99999.0,'11111222,11111222,99999999' 
TABS,ioos:station:wmo:42049:1,2015-10-13T03:30:00Z,28.3507,-96.0058,2.0,58.72775934,20.3811874,-99999.0,'11111222,11111222,99999999' 
TABS,ioos:station:wmo:42049:1,2015-10-13T04:00:00Z,28.3507,-96.0058,2.0,47.79000906,21.21005893,-99999.0,'11111222,11111222,99999999' 
TABS,ioos:station:wmo:42049:1,2015-10-13T04:30:00Z,28.3507,-96.0058,2.0,47.68773634,22.92133068,-99999.0,'11111222,11111222,99999999' 
TABS,ioos:station:wmo:42049:1,2015-10-13T05:00:00Z,28.3507,-96.0058,2.0,46.90701144,18.06243893,-99999.0,'11111222,11111222,99999999' 
TABS,ioos:station:wmo:42049:1,2015-10-13T05:30:00Z,28.3507,-96.0058,2.0,39.165046,20.72662539,-99999.0,'11111222,11111222,99999999' 
TABS,ioos:station:wmo:42049:1,2015-10-13T06:00:00Z,28.3507,-96.0058,2.0,34.78315734,25.15468346,-99999.0,'11111222,11111222,99999999' 
TABS,ioos:station:wmo:42049:1,2015-10-13T06:30:00Z,28.3507,-96.0058,2.0,33.8391735,26.66730208,-99999.0,'11111222,11111222,99999999' 
TABS,ioos:station:wmo:42049:1,2015-10-13T07:00:00Z,28.3507,-96.0058,2.0,33.49744755,26.38169062,-99999.0,'11111222,11111222,99999999' 
TABS,ioos:station:wmo:42049:1,2015-10-13T07:30:00Z,28.3507,-96.0058,2.0,36.6122107,26.22426548,-99999.0,'11111222,11111222,99999999' 
TABS,ioos:station:wmo:42049:1,2015-10-13T08:00:00Z,28.3507,-96.0058,2.0,40.85684091,26.03299829,-99999.0,'11111222,11111222,99999999' 
TABS,ioos:station:wmo:42049:1,2015-10-13T08:30:00Z,28.3507,-96.0058,2.0,46.23650994,25.56079029,-99999.0,'11111222,11111222,99999999' 
TABS,ioos:station:wmo:42049:1,2015-10-13T09:00:00Z,28.3507,-96.0058,2.0,52.13070001,26.94409954,-99999.0,'11111222,11111222,99999999' 
TABS,ioos:station:wmo:42049:1,2015-10-13T09:30:00Z,28.3507,-96.0058,2.0,54.42786212,23.13793422,-99999.0,'11111222,11111222,99999999' 
TABS,ioos:station:wmo:42049:1,2015-10-13T10:00:00Z,28.3507,-96.0058,2.0,59.19619463,23.35476825,-99999.0,'11111222,11111222,99999999' 
TABS,ioos:station:wmo:42049:1,2015-10-13T10:30:00Z,28.3507,-96.0058,2.0,70.04845596,21.74511439,-99999.0,'11111222,11111222,99999999' 
TABS,ioos:station:wmo:42049:1,2015-10-13T11:00:00Z,28.3507,-96.0058,2.0,85.22131674,18.96592734,-99999.0,'11111222,11111222,99999999' 
TABS,ioos:station:wmo:42049:1,2015-10-13T11:30:00Z,28.3507,-96.0058,2.0,105.6130933,15.15936674,-99999.0,'11111222,11111222,99999999' 
TABS,ioos:station:wmo:42049:1,2015-10-13T12:00:00Z,28.3507,-96.0058,2.0,140.1256529,14.95855942,-99999.0,'11111222,11111222,99999999' 
TABS,ioos:station:wmo:42049:1,2015-10-13T12:30:00Z,28.3507,-96.0058,2.0,150.1544285,16.25601735,-99999.0,'11111222,11111222,99999999' 
TABS,ioos:station:wmo:42049:1,2015-10-13T13:00:00Z,28.3507,-96.0058,2.0,171.6127768,22.07609567,-99999.0,'11111222,11111222,99999999' 
TABS,ioos:station:wmo:42049:1,2015-10-13T13:30:00Z,28.3507,-96.0058,2.0,184.9978911,25.36645423,-99999.0,'11111222,11111222,99999999' 
TABS,ioos:station:wmo:42049:1,2015-10-13T14:00:00Z,28.3507,-96.0058,2.0,194.3799763,24.23944719,-99999.0,'11111222,11111222,99999999' 
TABS,ioos:station:wmo:42049:1,2015-10-13T14:30:00Z,28.3507,-96.0058,2.0,197.5018771,23.30907549,-99999.0,'11111222,11111222,99999999' 
TABS,ioos:station:wmo:42049:1,2015-10-13T15:00:00Z,28.3507,-96.0058,2.0,200.2827376,26.76995517,-99999.0,'11111222,11111222,99999999' 
TABS,ioos:station:wmo:42049:1,2015-10-13T15:30:00Z,28.3507,-96.0058,2.0,194.2569393,30.81923101,-99999.0,'11111222,11111222,99999999' 
TABS,ioos:station:wmo:42049:1,2015-10-13T16:00:00Z,28.3507,-96.0058,2.0,200.2898953,30.76927851,-99999.0,'11111222,11111222,99999999' 
TABS,ioos:station:wmo:42049:1,2015-10-13T16:30:00Z,28.3507,-96.0058,2.0,201.6248435,30.17377835,-99999.0,'11111222,11111222,99999999' 
TABS,ioos:station:wmo:42049:1,2015-10-13T17:00:00Z,28.3507,-96.0058,2.0,204.390679,30.41452942,-99999.0,'11111222,11111222,99999999' 
TABS,ioos:station:wmo:42049:1,2015-10-13T17:30:00Z,28.3507,-96.0058,2.0,205.6845156,31.14763073,-99999.0,'11111222,11111222,99999999' 
TABS,ioos:station:wmo:42049:1,2015-10-13T18:00:00Z,28.3507,-96.0058,2.0,206.8494246,31.50658661,-99999.0,'11111222,11111222,99999999' 
TABS,ioos:station:wmo:42049:1,2015-10-13T18:30:00Z,28.3507,-96.0058,2.0,219.1950152,33.41952124,-99999.0,'11111222,11111222,99999999' 
TABS,ioos:station:wmo:42049:1,2015-10-13T19:00:00Z,28.3507,-96.0058,2.0,216.6999084,28.36212439,-99999.0,'11111222,11111222,99999999' 
TABS,ioos:station:wmo:42049:1,2015-10-13T19:30:00Z,28.3507,-96.0058,2.0,220.9819313,33.60652466,-99999.0,'11111222,11111222,99999999' 
TABS,ioos:station:wmo:42049:1,2015-10-13T20:00:00Z,28.3507,-96.0058,2.0,227.5790447,33.31019363,-99999.0,'11111222,11111222,99999999' 
TABS,ioos:station:wmo:42049:1,2015-10-13T20:30:00Z,28.3507,-96.0058,2.0,228.5652686,30.5850045,-99999.0,'11111222,11111222,99999999' 